sat.trackr.live / text

‹ back to catalog

STARLINK-2409

NORAD 47824 · 2021-018AP

PAYLOAD ACTIVE UNKNOWN

§ Identity

Operator
Country
US
Launch date
2021-03-11
Launch site
AFETR
Launch vehicle
Mass (kg)
RCS (m²)

Purposes: comms

External: N2YO · Heavens-Above · Gunter

§ Orbital elements

Epoch: 2026-05-25T00:55:19.922592Z

Period
94.11 min
Inclination
53.1601°
Eccentricity
0.0001051
Mean motion
15.30193503 rev/d
Perigee alt
474.5 km
Apogee alt
476.0 km
Semi-major
6,853.4 km
B*
6.6305e-6
RAAN
263.1534°
Arg perigee
85.0667°
Mean anomaly
275.0453°
Rev number
28,818

§ Raw data

STARLINK-24091 47824U 21018AP  26145.03842503 -.00000163  00000+0  66305-5 0  99952 47824  53.1601 263.1534 0001051  85.0667 275.0453 15.30193503288189

JSON: /api/v1/satellites/47824 · /tle

For live sub-satellite position, see the globe view (requires WebGL).

§ Visibility from observer

Set your observer location to see the next 7 days of passes ≥ 10°. The values pass through the URL so the page stays shareable.

No JS? Fill the form by hand. The geolocation button needs JavaScript.